Tracking 18796 objects as of 19-September-2017
HD Live streaming from Space Station
objects crossing your sky now

COSMOS 2390

Track COSMOS 2390 now!
10-day predictions
COSMOS 2390 is classified as:


NORAD ID: 27464
Int'l Code: 2002-036A
Perigee: 1,473.8 km
Apogee: 1,515.1 km
Inclination: 82.5 °
Period: 115.7 minutes
Semi major axis: 7865 km
RCS: 0.93 m2 (medium)
Launch date: July 8, 2002
Source: Commonwealth of Independent States (former USSR) (CIS)
Launch site: PLESETSK MISSILE AND SPACE COMPLEX (PKMTR)

Store-dump communications for Russian government and military.
aabbcc
Your satellite tracking list
Your tracking list is empty





NASA's NSSDC Master Catalog

Two Line Element Set (TLE):
1 27464U 02036A   17262.13973413 +.00000019 +00000-0 +65720-4 0  9997
2 27464 082.4881 181.3458 0026219 042.8309 317.4807 12.44564182690611
Source of the keplerian elements: AFSPC